Location: La Oliva
(42.2466°N, 2.9955°E)
Time: 07:55:52
(UTC+00:00)

BREEZE-M DEB (TANK) - Pass Details

Date: 22 April 2021
Orbit: 317 x 14227 km, 49.6° (Epoch: 07 May)

Event Time Altitude Azimuth Distance (km) Brightness Sun altitude
Rises 21:06:15 0° 300° (WNW) 2,071 6.8 -24.1°
Reaches altitude 10° 21:07:51 10° 303° (WNW) 1,237 5.4 -24.3°
Enters shadow 21:08:42 22° 306° (NW) 817 4.3 -24.4°
